KB6CYS Weather Reports


Display with metric or nautical units.
time (UTC)temp
F
wind
direction
speed
MPH
gust
MPH
rain 1hr
in
rain 24hr
in
rain mn
in
humidity
%
barometer
mb
20260903071503 67 171 1.0 2.0 0.00 0.00 0.00 1014.9
20260903071002 67 156 1.0 2.0 0.00 0.00 0.00 1015.3
20260903070502 67 125 1.0 2.0 0.00 0.00 0.00 1015.3
20260903070003 67 127 1.0 2.0 0.00 0.00 0.00 1015.3
20260903065503 67 127 1.0 3.0 0.00 0.00 0.00 1014.6
20260903065002 67 145 1.0 3.0 0.00 0.00 0.00 1014.6
20260903064502 67 165 1.0 2.0 0.00 0.00 0.00 1014.9
20260903064002 67 154 1.0 2.0 0.00 0.00 0.00 1014.9
20260903063502 67 115 1.0 2.0 0.00 0.00 0.00 1014.6
20260903063004 67 99 1.0 2.0 0.00 0.00 0.00 1014.6
20260903062503 67 128 1.0 2.0 0.00 0.00 0.00 1014.6
20260903062003 67 131 1.0 3.0 0.00 0.00 0.00 1014.9
20260903061503 67 134 1.0 3.0 0.00 0.00 0.00 1014.3
20260903061002 68 145 1.0 5.0 0.00 0.00 0.00 1014.9
20260903060503 68 129 1.0 5.0 0.00 0.00 0.00 1014.6
20260903060002 68 138 1.0 3.0 0.00 0.00 0.00 1014.3
20260903055524 68 156 2.0 3.0 0.00 0.00 0.00 1014.3
20260903055024 68 160 1.0 3.0 0.00 0.00 0.00 1014.3
20260903054502 68 137 1.0 3.0 0.00 0.00 0.00 1013.9
20260903054003 68 116 2.0 3.0 0.00 0.00 0.00 1014.3
20260903053503 68 114 2.0 3.0 0.00 0.00 0.00 1014.3
20260903053024 68 103 1.0 2.0 0.00 0.00 0.00 1014.6
20260903052502 69 102 1.0 3.0 0.00 0.00 0.00 1014.6
20260903052002 69 118 1.0 3.0 0.00 0.00 0.00 1014.3
20260903051524 69 9 1.0 3.0 0.00 0.00 0.00 1014.3
20260903051004 70 117 1.0 3.0 0.00 0.00 0.00 1014.6
20260903050502 70 201 1.0 2.0 0.00 0.00 0.00 1014.9
20260903050024 70 207 1.0 2.0 0.00 0.00 0.00 1014.6
20260903045503 70 178 1.0 2.0 0.00 0.00 0.00 1014.3
20260903045002 70 203 0.0 2.0 0.00 0.00 0.00 1013.9
20260903044502 70 202 0.0 2.0 0.00 0.00 0.00 1014.3
20260903044003 70 225 1.0 3.0 0.00 0.00 0.00 1014.3
20260903043502 70 178 2.0 3.0 0.00 0.00 0.00 1014.3
20260903043003 70 175 1.0 3.0 0.00 0.00 0.00 1014.6
20260903042502 70 191 2.0 3.0 0.00 0.00 0.00 1014.3
20260903042002 70 202 1.0 4.0 0.00 0.00 0.00 1014.6
20260903041503 69 208 2.0 4.0 0.00 0.00 0.00 1013.6
20260903041002 69 222 2.0 5.0 0.00 0.00 0.00 1014.3
20260903040524 69 274 3.0 6.0 0.00 0.00 0.00 1014.3
20260903040002 69 256 3.0 9.0 0.00 0.00 0.00 1013.9
20260903035503 69 259 3.0 9.0 0.00 0.00 0.00 1014.3
20260903035003 70 260 3.0 8.0 0.00 0.00 0.00 1013.9
20260903034524 70 264 3.0 8.0 0.00 0.00 0.00 1013.9
20260903034002 69 284 3.0 8.0 0.00 0.00 0.00 1014.3
20260903033502 70 263 5.0 8.0 0.00 0.00 0.00 1013.6
20260903033024 70 261 4.0 7.0 0.00 0.00 0.00 1013.6
20260903032503 70 260 3.0 8.0 0.00 0.00 0.00 1013.6
20260903032004 70 256 4.0 9.0 0.00 0.00 0.00 1013.6
20260903031502 70 249 5.0 9.0 0.00 0.00 0.00 1013.6
20260903031025 70 266 5.0 9.0 0.00 0.00 0.00 1013.6
20260903030503 70 258 5.0 10.0 0.00 0.00 0.00 1013.2
20260903030024 70 252 6.0 10.0 0.00 0.00 0.00 1012.9
20260903025504 71 255 5.0 9.0 0.00 0.00 0.00 1012.9
20260903025002 71 260 3.0 5.0 0.00 0.00 0.00 1012.9
20260903024502 71 289 3.0 8.0 0.00 0.00 0.00 1013.2
20260903024025 71 269 5.0 8.0 0.00 0.00 0.00 1012.9
20260903023524 71 267 3.0 9.0 0.00 0.00 0.00 1012.9
20260903023024 72 242 5.0 9.0 0.00 0.00 0.00 1013.2
20260903022502 72 282 5.0 9.0 0.00 0.00 0.00 1012.9
20260903022003 72 258 6.0 9.0 0.00 0.00 0.00 1013.2
20260903021502 72 238 6.0 12.0 0.00 0.00 0.00 1012.6
20260903021003 73 256 6.0 12.0 0.00 0.00 0.00 1013.2
20260903020503 73 263 5.0 11.0 0.00 0.00 0.00 1012.9
20260903020024 73 248 7.0 11.0 0.00 0.00 0.00 1012.6
20260903015503 74 263 6.0 14.0 0.00 0.00 0.00 1012.9
20260903015003 74 278 8.0 14.0 0.00 0.00 0.00 1013.2
20260903014502 74 263 6.0 13.0 0.00 0.00 0.00 1012.9
20260903014003 75 256 7.0 15.0 0.00 0.00 0.00 1012.9
20260903013503 75 268 8.0 15.0 0.00 0.00 0.00 1012.9
20260903013002 76 261 8.0 12.0 0.00 0.00 0.00 1012.9
20260903012503 77 280 7.0 12.0 0.00 0.00 0.00 1012.9
20260903012003 77 251 6.0 12.0 0.00 0.00 0.00 1012.9
20260903011502 77 281 8.0 14.0 0.00 0.00 0.00 1013.2
20260903011024 77 260 5.0 14.0 0.00 0.00 0.00 1013.6
20260903010503 77 269 8.0 13.0 0.00 0.00 0.00 1013.2
20260903010003 77 259 8.0 14.0 0.00 0.00 0.00 1012.9
20260903005503 78 282 6.0 15.0 0.00 0.00 0.00 1013.6
20260903005002 78 276 8.0 15.0 0.00 0.00 0.00 1013.6
20260903004525 78 273 6.0 15.0 0.00 0.00 0.00 1013.6
20260903004003 78 277 8.0 15.0 0.00 0.00 0.00 1013.2
20260903003502 78 276 9.0 15.0 0.00 0.00 0.00 1013.6
20260903003002 79 282 5.0 15.0 0.00 0.00 0.00 1013.6
20260903002503 79 271 9.0 15.0 0.00 0.00 0.00 1013.6
20260903002003 79 286 8.0 14.0 0.00 0.00 0.00 1013.2
20260903001502 81 279 8.0 14.0 0.00 0.00 0.00 1013.2
20260903001002 81 282 7.0 12.0 0.00 0.00 0.00 1013.2
20260903000525 82 220 7.0 10.0 0.00 0.00 0.00 1013.2
20260903000002 82 219 6.0 10.0 0.00 0.00 0.00 1013.2
20260902235503 81 205 4.0 12.0 0.00 0.00 0.00 1013.2
20260902235003 81 168 6.0 12.0 0.00 0.00 0.00 1013.6
20260902234503 82 200 6.0 11.0 0.00 0.00 0.00 1013.2
20260902234003 82 186 6.0 10.0 0.00 0.00 0.00 1013.6
20260902233502 82 186 5.0 11.0 0.00 0.00 0.00 1013.2
20260902233002 82 186 5.0 11.0 0.00 0.00 0.00 1013.2
20260902232503 81 198 5.0 12.0 0.00 0.00 0.00 1013.6
20260902232003 81 213 6.0 12.0 0.00 0.00 0.00 1013.6
20260902231503 81 221 7.0 12.0 0.00 0.00 0.00 1013.6
20260902231024 81 227 6.0 12.0 0.00 0.00 0.00 1012.9
20260902230503 81 208 5.0 12.0 0.00 0.00 0.00 1012.6
20260902230002 81 223 8.0 11.0 0.00 0.00 0.00 1012.9
20260902225524 81 222 7.0 13.0 0.00 0.00 0.00 1013.2
20260902225003 81 222 7.0 13.0 0.00 0.00 0.00 1013.2
20260902224503 82 207 7.0 12.0 0.00 0.00 0.00 1013.9
20260902224002 81 194 6.0 12.0 0.00 0.00 0.00 1014.3
20260902223502 81 221 5.0 11.0 0.00 0.00 0.00 1013.9
20260902223024 81 241 6.0 12.0 0.00 0.00 0.00 1013.6
20260902222503 81 214 7.0 13.0 0.00 0.00 0.00 1013.6
20260902222003 81 224 8.0 13.0 0.00 0.00 0.00 1014.3
20260902221502 81 215 4.0 13.0 0.00 0.00 0.00 1013.9
20260902221002 81 207 6.0 12.0 0.00 0.00 0.00 1013.6
20260902220503 81 210 5.0 12.0 0.00 0.00 0.00 1013.9
20260902220004 80 200 6.0 13.0 0.00 0.00 0.00 1013.9
20260902215525 80 228 7.0 14.0 0.00 0.00 0.00 1013.6
20260902215002 81 213 5.0 14.0 0.00 0.00 0.00 1013.9
20260902214524 81 232 8.0 13.0 0.00 0.00 0.00 1014.3
20260902214002 80 206 6.0 12.0 0.00 0.00 0.00 1013.9
20260902213502 80 221 5.0 14.0 0.00 0.00 0.00 1013.9
20260902213003 79 241 7.0 14.0 0.00 0.00 0.00 1014.6
20260902212503 79 223 6.0 12.0 0.00 0.00 0.00 1014.3
20260902212003 80 188 7.0 12.0 0.00 0.00 0.00 1014.3
20260902211503 79 238 8.0 13.0 0.00 0.00 0.00 1013.6
20260902211003 79 226 6.0 13.0 0.00 0.00 0.00 1014.3
20260902210503 80 230 7.0 11.0 0.00 0.00 0.00 1014.6
20260902210002 81 207 7.0 13.0 0.00 0.00 0.00 1013.9
20260902205503 81 202 6.0 14.0 0.00 0.00 0.00 1014.6
20260902205002 80 215 7.0 14.0 0.00 0.00 0.00 1014.6
20260902204502 79 195 5.0 12.0 0.00 0.00 0.00 1014.3
20260902204003 80 234 5.0 10.0 0.00 0.00 0.00 1014.9
20260902203524 81 182 4.0 12.0 0.00 0.00 0.00 1014.9
20260902203002 80 215 5.0 12.0 0.00 0.00 0.00 1014.9
20260902202503 80 218 6.0 12.0 0.00 0.00 0.00 1014.9
20260902202003 80 209 6.0 11.0 0.00 0.00 0.00 1014.9
20260902201503 80 223 6.0 11.0 0.00 0.00 0.00 1014.3
20260902201024 79 188 3.0 9.0 0.00 0.00 0.00 1014.3
20260902200503 79 235 3.0 10.0 0.00 0.00 0.00 1014.6
20260902200004 79 238 5.0 10.0 0.00 0.00 0.00 1014.6
20260902195503 80 213 3.0 11.0 0.00 0.00 0.00 1014.3
20260902195003 79 211 7.0 11.0 0.00 0.00 0.00 1014.3
20260902194502 79 233 4.0 8.0 0.00 0.00 0.00 1014.9
20260902194004 78 186 3.0 9.0 0.00 0.00 0.00 1014.6
20260902193503 77 231 7.0 9.0 0.00 0.00 0.00 1014.9
20260902193002 77 228 2.0 9.0 0.00 0.00 0.00 1014.9
20260902192503 76 269 3.0 8.0 0.00 0.00 0.00 1015.3
20260902192004 77 9 2.0 9.0 0.00 0.00 0.00 1015.3
20260902191503 76 313 2.0 10.0 0.00 0.00 0.00 1015.3
20260902191003 76 248 6.0 10.0 0.00 0.00 0.00 1014.6
20260902190503 75 255 6.0 9.0 0.00 0.00 0.00 1015.3
20260902190002 75 281 6.0 9.0 0.00 0.00 0.00 1014.9
20260902185524 76 212 4.0 9.0 0.00 0.00 0.00 1014.9
20260902185003 76 271 4.0 9.0 0.00 0.00 0.00 1015.6
20260902184502 75 207 2.0 10.0 0.00 0.00 0.00 1015.3
20260902184004 75 246 6.0 11.0 0.00 0.00 0.00 1014.9
20260902183503 74 272 6.0 11.0 0.00 0.00 0.00 1014.9
20260902183002 75 211 4.0 12.0 0.00 0.00 0.00 1014.9
20260902182502 75 219 6.0 12.0 0.00 0.00 0.00 1014.9
20260902182002 75 219 5.0 11.0 0.00 0.00 0.00 1014.9
20260902181502 75 224 5.0 11.0 0.00 0.00 0.00 1015.3
20260902181003 75 197 4.0 8.0 0.00 0.00 0.00 1016.0
20260902180502 74 9 1.0 6.0 0.00 0.00 0.00 1016.0
20260902180005 74 232 3.0 10.0 0.00 0.00 0.00 1016.3
20260902175502 74 227 6.0 10.0 0.00 0.00 0.00 1016.0
20260902175003 73 38 1.0 10.0 0.00 0.00 0.00 1016.0
20260902174503 73 274 3.0 10.0 0.00 0.00 0.00 1015.6
20260902174002 73 232 1.0 10.0 0.00 0.00 0.00 1015.3
20260902173503 73 193 4.0 10.0 0.00 0.00 0.00 1014.9
20260902173004 72 203 4.0 9.0 0.00 0.00 0.00 1014.6
20260902172502 72 275 3.0 8.0 0.00 0.00 0.00 1015.3
20260902172025 73 230 1.0 7.0 0.00 0.00 0.00 1015.3
20260902171503 73 218 2.0 7.0 0.00 0.00 0.00 1015.6
20260902171003 72 133 2.0 7.0 0.00 0.00 0.00 1014.9
20260902170503 71 228 3.0 6.0 0.00 0.00 0.00 1014.9
20260902170025 71 214 3.0 7.0 0.00 0.00 0.00 1015.6
20260902165502 71 212 4.0 7.0 0.00 0.00 0.00 1014.9
20260902165004 71 237 4.0 7.0 0.00 0.00 0.00 1014.6
20260902164502 70 273 2.0 7.0 0.00 0.00 0.00 1014.9
20260902164003 70 244 3.0 5.0 0.00 0.00 0.00 1014.9
20260902163503 70 222 2.0 5.0 0.00 0.00 0.00 1015.3
20260902163002 69 215 3.0 5.0 0.00 0.00 0.00 1015.3
20260902162503 69 198 2.0 5.0 0.00 0.00 0.00 1014.9
20260902162024 69 186 1.0 6.0 0.00 0.00 0.00 1014.9
20260902161503 68 215 3.0 7.0 0.00 0.00 0.00 1014.9
20260902161003 68 245 4.0 7.0 0.00 0.00 0.00 1015.3
20260902160504 69 302 1.0 5.0 0.00 0.00 0.00 1015.3
20260902160002 68 178 3.0 5.0 0.00 0.00 0.00 1014.9
20260902155524 68 218 3.0 5.0 0.00 0.00 0.00 1014.6
20260902155003 68 85 1.0 6.0 0.00 0.00 0.00 1014.6
20260902154502 68 200 2.0 6.0 0.00 0.00 0.00 1014.6
20260902154003 67 197 3.0 5.0 0.00 0.00 0.00 1014.6
20260902153504 67 170 3.0 5.0 0.00 0.00 0.00 1014.9
20260902153002 67 99 2.0 5.0 0.00 0.00 0.00 1014.6
20260902152502 67 167 3.0 5.0 0.00 0.00 0.00 1014.9
20260902152003 66 86 2.0 5.0 0.00 0.00 0.00 1014.6
20260902151502 66 110 2.0 7.0 0.00 0.00 0.00 1014.6
20260902151002 65 165 3.0 7.0 0.00 0.00 0.00 1014.9
20260902150502 65 150 2.0 4.0 0.00 0.00 0.00 1014.9
20260902150003 64 163 2.0 3.0 0.00 0.00 0.00 1014.6
20260902145524 64 182 1.0 3.0 0.00 0.00 0.00 1014.6
20260902145003 64 234 1.0 3.0 0.00 0.00 0.00 1014.6
20260902144502 64 216 1.0 3.0 0.00 0.00 0.00 1014.6
20260902144003 63 104 1.0 3.0 0.00 0.00 0.00 1014.9
20260902143503 63 106 1.0 3.0 0.00 0.00 0.00 1014.9
20260902143002 63 102 1.0 4.0 0.00 0.00 0.00 1015.3
20260902142503 63 77 2.0 4.0 0.00 0.00 0.00 1015.3
20260902142003 63 96 2.0 4.0 0.00 0.00 0.00 1014.9
20260902141503 63 89 1.0 3.0 0.00 0.00 0.00 1014.9
20260902141003 62 88 1.0 3.0 0.00 0.00 0.00 1015.3
20260902140503 62 89 1.0 2.0 0.00 0.00 0.00 1015.3
20260902140003 62 49 0.0 2.0 0.00 0.00 0.00 1014.9
20260902135524 62 68 1.0 2.0 0.00 0.00 0.00 1014.9
20260902135004 62 68 1.0 1.0 0.00 0.00 0.00 1014.3
20260902134524 62 68 1.0 2.0 0.00 0.00 0.00 1014.6
20260902134002 62 66 1.0 3.0 0.00 0.00 0.00 1014.3
20260902133524 62 76 2.0 3.0 0.00 0.00 0.00 1014.6
20260902133003 62 62 1.0 4.0 0.00 0.00 0.00 1014.6
20260902132503 62 44 2.0 4.0 0.00 0.00 0.00 1014.6
20260902132002 62 51 2.0 3.0 0.00 0.00 0.00 1015.3
20260902131502 62 50 2.0 3.0 0.00 0.00 0.00 1014.9
20260902131003 62 42 1.0 3.0 0.00 0.00 0.00 1014.6
20260902130502 62 63 2.0 3.0 0.00 0.00 0.00 1014.6
20260902130003 62 60 1.0 3.0 0.00 0.00 0.00 1014.6
20260902125503 62 52 2.0 3.0 0.00 0.00 0.00 1014.3
20260902125002 62 42 2.0 3.0 0.00 0.00 0.00 1014.3
20260902124524 63 34 2.0 3.0 0.00 0.00 0.00 1014.6
20260902124002 63 33 2.0 3.0 0.00 0.00 0.00 1014.6
20260902123503 63 49 1.0 3.0 0.00 0.00 0.00 1014.6
20260902123003 63 21 1.0 2.0 0.00 0.00 0.00 1014.3
20260902122502 63 30 1.0 3.0 0.00 0.00 0.00 1014.3
20260902122004 63 0 1.0 3.0 0.00 0.00 0.00 1014.3
20260902121503 63 38 1.0 2.0 0.00 0.00 0.00 1014.6
20260902121002 63 68 1.0 2.0 0.00 0.00 0.00 1014.3
20260902120502 63 90 0.0 3.0 0.00 0.00 0.00 1014.6
20260902120002 63 49 2.0 3.0 0.00 0.00 0.00 1014.3
20260902115504 63 43 1.0 3.0 0.00 0.00 0.00 1014.3
20260902115002 63 33 1.0 3.0 0.00 0.00 0.00 1014.6
20260902114504 63 42 2.0 3.0 0.00 0.00 0.00 1014.3
20260902114003 63 10 2.0 3.0 0.00 0.00 0.00 1014.3
20260902113502 64 23 1.0 2.0 0.00 0.00 0.00 1014.9
20260902113004 64 16 1.0 2.0 0.00 0.00 0.00 1014.6
20260902112504 64 43 2.0 2.0 0.00 0.00 0.00 1014.6
20260902112003 64 43 1.0 3.0 0.00 0.00 0.00 1014.6
20260902111504 64 58 1.0 3.0 0.00 0.00 0.00 1014.6
20260902111002 64 47 2.0 3.0 0.00 0.00 0.00 1014.6
20260902110503 64 59 2.0 3.0 0.00 0.00 0.00 1014.6
20260902110026 64 18 2.0 3.0 0.00 0.00 0.00 1014.6
20260902105502 64 314 1.0 2.0 0.00 0.00 0.00 1014.6
20260902105003 64 314 2.0 2.0 0.00 0.00 0.00 1014.9
20260902104503 64 314 0.0 2.0 0.00 0.00 0.00 1014.9
20260902104025 64 314 1.0 3.0 0.00 0.00 0.00 1014.6
20260902103503 64 314 1.0 3.0 0.00 0.00 0.00 1014.9
20260902103003 64 314 1.0 2.0 0.00 0.00 0.00 1014.9
20260902102524 64 314 1.0 2.0 0.00 0.00 0.00 1014.6
20260902102002 64 314 1.0 2.0 0.00 0.00 0.00 1014.9
20260902101524 64 315 0.0 1.0 0.00 0.00 0.00 1015.3
20260902101003 64 315 0.0 1.0 0.00 0.00 0.00 1015.6
20260902100502 64 314 1.0 1.0 0.00 0.00 0.00 1014.9
20260902100003 64 315 0.0 0.0 0.00 0.00 0.00 1015.3
20260902095503 64 23 0.0 1.0 0.00 0.00 0.00 1014.9
20260902095005 64 23 0.0 2.0 0.00 0.00 0.00 1015.3
20260902094502 64 23 1.0 2.0 0.00 0.00 0.00 1014.9
20260902094002 64 23 1.0 2.0 0.00 0.00 0.00 1015.3
20260902093503 64 23 1.0 2.0 0.00 0.00 0.00 1014.9
20260902093025 64 35 1.0 2.0 0.00 0.00 0.00 1014.9
20260902092503 64 45 1.0 2.0 0.00 0.00 0.00 1014.9
20260902092003 65 273 1.0 2.0 0.00 0.00 0.00 1014.9
20260902091503 65 247 0.0 1.0 0.00 0.00 0.00 1014.9
20260902091004 65 248 0.0 0.0 0.00 0.00 0.00 1014.9
20260902090524 65 248 0.0 1.0 0.00 0.00 0.00 1015.3
20260902090003 65 247 1.0 1.0 0.00 0.00 0.00 1015.3
20260902085503 65 248 0.0 0.0 0.00 0.00 0.00 1014.9
20260902085024 65 248 0.0 0.0 0.00 0.00 0.00 1014.9
20260902084503 65 248 0.0 0.0 0.00 0.00 0.00 1015.6
20260902084003 65 248 0.0 0.0 0.00 0.00 0.00 1015.6
20260902083504 65 248 0.0 1.0 0.00 0.00 0.00 1015.3
20260902083003 65 247 0.0 1.0 0.00 0.00 0.00 1015.6
20260902082503 65 247 1.0 1.0 0.00 0.00 0.00 1014.9
20260902082002 66 248 0.0 3.0 0.00 0.00 0.00 1015.6
20260902081503 66 247 0.0 3.0 0.00 0.00 0.00 1015.3
20260902081002 66 248 0.0 0.0 0.00 0.00 0.00 1015.6
20260902080524 66 248 0.0 0.0 0.00 0.00 0.00 1015.3
20260902080003 66 248 0.0 0.0 0.00 0.00 0.00 1014.9
20260902075524 66 248 0.0 0.0 0.00 0.00 0.00 1015.3
20260902075002 66 248 0.0 0.0 0.00 0.00 0.00 1015.3
20260902074525 66 248 0.0 1.0 0.00 0.00 0.00 1014.9
20260902074003 66 248 0.0 1.0 0.00 0.00 0.00 1015.3
20260902073524 66 247 1.0 1.0 0.00 0.00 0.00 1015.3
20260902073004 66 247 1.0 1.0 0.00 0.00 0.00 1014.6
20260902072504 67 248 0.0 1.0 0.00 0.00 0.00 1014.3
20260902072003 67 247 1.0 1.0 0.00 0.00 0.00 1014.6